SCP
-0 -0 -0 -0 0 0 0 0 0 0 0 0 0 0 0 0 0 0 0 -0 0 -0 -0 -0 -0 -0 -0 -0 -0 -0 -0 -0 -0 -0 0 0 0 0 0 0 0 0 -0 -0 0 0 0 -0 -0
-0 -0 -0 0 0 0 0 0 0 0 0 0 0 0 0 0 0 0 0 -0 0 -0 -0 -0 -0 -0 -0 -0 -0 -0 -0 -0 -0 -0 -0 0 0 -0 -0 0 0 0 0 0 0 0 0 0 -0
-0 -0 0 0 0 0 0 0 0 0 0 0 0 0 0 0 0 0 0 -0 -0 -0 -0 -0 -0 -0 -0 -0 -0 -0 -0 -0 -0 -0 -0 0 0 0 0 0 0 0 0 0 0 0 0 0 -0
0 0 0 0 0 0 0 0 0 0 0 0 0 0 0 0 0 0 0 -0 -0 -0 0 0 -0 -0 -0 -0 -0 -0 -0 -0 0 0 0 0 0 0 0 0 0 0 0 0 0 0 -0 -0 -0
0 0 0 0 0 0 0 0 0 0 0 0 0 0 0 0 0 0 0 -0 -0 -0 -0 0 0 -0 -0 -0 -0 -0 0 -0 0 -0 -0 -0 0 0 0 0 0 0 0 0 0 0 0 0 0
0 0 0 0 0 0 0 0 0 0 0 0 0 0 0 0 0 0 0 -0 -0 -0 -0 -0 -0 0 0 -0 0 0 0 0 -0 0 0 -0 -0 0 0 0 0 0 0 0 0 0 0 0 -0
0 0 0 0 0 0 0 0 0 0 0 0 0 0 0 0 0 0 0 0 -0 0 -0 0 0 -0 -0 0 0 0 0 0 0 0 0 0 0 0 0 0 0 0 0 0 0 0 0 0 0
0 0 0 0 0 0 0 0 0 0 0 0 0 0 0 0 0 0 0 0 0 0 0 0 0 0 0 0 0 0 0 0 0 0 0 0 0 0 0 0 0 0 0 0 0 0 0 0 0
0 0 0 0 0 0 0 0 0 0 0 0 0 0 0 0 0 0 0 0 0 0 0 0 0 0 0 0 0 0 0 0 0 0 0 0 0 0 0 0 0 0 0 0 0 0 0 0 0
0 0 0 0 0 0 0 0 0 0 0 0 0 0 0 0 0 0 0 0 0 0 0 0 0 0 0 0 0 0 0 0 0 0 0 0 0 0 0 0 0 0 0 0 0 0 0 0 0
0 0 0 0 0 0 0 0 0 0 0 0 0 0 0 0 0 0 0 0 0 0 0 0 0 0 0 0 0 0 0 0 0 0 0 0 0 0 0 0 0 0 0 0 0 0 0 0 0
0 0 0 0 0 0 0 0 0 0 0 0 0 0 0 0 0 0 0 0 0 0 0 0 0 0 0 0 0 0 0 0 0 0 0 0 0 0 0 0 0 0 0 0 0 0 0 0 0
0 0 0 0 0 0 0 0 0 0 0 0 0 0 0 0 0 0 0 0 0 0 0 0 0 0 0 0 0 0 0 0 0 0 0 0 0 0 0 0 0 0 0 0 0 0 0 0 0
0 0 0 0 0 0 0 0 0 0 0 0 0 0 0 0 0 0 0 0 0 0 0 0 0 0 0 0 0 0 0 0 0 0 0 0 0 0 0 0 0 0 0 0 0 0 0 0 0
0 0 0 0 0 0 0 0 0 0 0 0 0 0 0 0 0 0 0 0 0 0 0 0 0 0 0 0 0 0 0 0 0 0 0 0 0 0 0 0 0 0 0 0 0 0 0 0 0
0 0 0 0 0 0 0 0 0 0 0 0 0 0 0 0 0 0 0 0 0 0 0 0 0 0 0 0 0 0 0 0 0 0 0 0 0 0 0 0 0 0 0 0 0 0 0 0 0
0 0 0 0 0 0 0 0 0 0 0 0 -0 -0 0 0 0 0 0 0 0 0 0 0 0 0 0 0 0 0 0 0 0 0 0 0 0 0 0 0 0 0 0 0 0 0 0 0 0
0 0 0 0 0 0 0 0 0 -0 0 -0 -0 0 0 0 0 0 0 0 0 0 0 0 0 0 0 0 0 0 0 0 0 0 0 0 0 0 0 0 0 0 0 0 0 0 0 0 0
0 0 0 0 0 0 0 0 0 0 0 0 0 0 0 0 0 0 0 0 0 0 0 0 0 0 0 0 0 0 0 0 0 0 0 0 0 0 0 0 0 0 0 0 0 0 0 0 0
0 0 0 0 0 0 0 -0 0 0 0 0 0 0 0 0 0 0 0 0 0 0 0 0 0 0 0 0 0 0 0 0 0 0 0 0 0 0 0 0 0 0 0 0 0 0 0 0 0
0 0 0 0 0 0 0 -0 0 0 0 0 0 0 0 0 0 0 0 0 -0 0 0 0 0 0 0 0 0 0 0 0 0 0 0 0 0 0 0 0 0 0 0 0 0 0 0 0 0
0 0 0 0 0 0 0 -0 -0 -0 -0 -0 0 0 0 0 0 0 -0 -0 -0 0 0 0 0 0 0 0 0 0 0 0 0 0 0 0 0 0 0 0 0 0 0 0 0 0 0 0 0
0 0 0 0 0 0 0 0 0 0 -0 0 0 0 0 -0 -0 -0 0 0 0 0 0 0 0 0 0 0 0 0 0 0 0 0 0 0 0 0 0 0 0 0 0 0 0 0 0 0 0
0 0 0 0 0 0 0 0 0 0 0 0 0 0 0 0 0 0 0 0 0 0 0 0 0 0 0 0 0 0 0 0 0 0 0 0 0 0 0 0 0 0 0 0 0 0 0 0 0
0 0 0 0 0 0 0 0 0 0 0 0 0 0 0 0 0 0 0 0 0 -0 0 0 0 0 0 0 0 0 0 0 0 0 0 0 0 0 0 0 0 0 0 0 0 0 0 0 0
0 0 0 0 0 0 0 0 0 0 0 0 0 0 0 0 -0 -0 -0 -0 0 0 0 0 0 0 0 0 0 0 0 0 0 0 0 0 0 0 0 0 0 0 0 0 0 0 0 0 0
0 0 0 0 0 0 0 0 0 0 0 0 0 0 0 0 0 0 0 0 0 0 -0 -0 0 0 0 0 0 0 0 0 0 0 0 0 0 0 0 0 0 0 0 0 0 0 0 0 0
0 0 0 0 0 0 0 0 0 0 0 0 0 0 0 0 -0 -0 -0 -0 -0 0 0 0 0 0 0 0 0 0 0 0 0 0 0 0 0 0 0 0 0 0 0 0 0 0 0 0 0
0 0 0 0 0 0 0 0 0 0 0 0 0 0 0 0 0 0 0 -0 -0 -0 0 0 0 0 0 0 0 0 0 0 0 0 0 0 0 0 0 0 0 0 0 0 0 0 0 0 0
0 0 0 0 0 0 0 0 0 0 0 -0 -0 -0 -0 0 0 0 0 0 0 0 0 0 0 0 0 0 -0 -0 0 0 0 0 0 0 0 0 0 0 0 0 0 0 0 0 0 0 0
Wind_Speed_500mb
9 7 6 6 6 7 6 9 4 6 4 4 16 9 9 5 9 6 3 16 22 42 46 48 46 44 39 34 32 28 26 25 28 21 21 24 26 22 19 16 17 17 16 14 6 5 7 7 6
7 4 3 3 6 3 8 7 8 9 1 7 12 9 5 11 27 14 10 18 25 34 40 43 44 43 42 37 33 32 27 27 24 23 22 20 21 17 17 18 20 20 22 17 8 9 9 10 10
5 2 1 7 5 7 7 9 6 6 6 8 4 9 7 7 9 10 12 20 26 34 38 40 40 41 41 41 36 33 35 29 29 27 24 20 18 15 15 18 21 23 21 17 17 15 15 16 15
4 2 8 6 8 12 10 4 6 12 4 12 6 10 12 18 9 13 12 21 27 32 39 40 39 39 37 37 37 36 35 37 34 31 24 22 23 20 19 22 23 22 21 19 17 17 16 17 16
6 3 5 3 8 10 11 18 9 4 5 5 8 6 11 20 22 23 14 19 28 29 35 41 42 40 39 39 40 41 42 43 33 24 23 23 22 22 20 21 20 19 18 17 16 15 12 10 9
6 5 5 5 8 10 14 17 7 7 9 6 7 9 13 18 18 19 22 18 27 29 33 38 43 43 42 40 41 41 41 42 33 27 25 24 23 22 20 19 18 16 14 11 9 6 5 4 3
10 7 6 5 9 11 8 3 5 5 6 12 9 4 10 17 14 13 18 23 26 30 34 38 44 46 44 41 42 42 40 41 36 31 27 26 24 21 18 16 15 12 9 8 7 5 4 4 4
8 9 5 8 6 12 5 4 5 9 8 7 10 10 10 13 18 19 21 27 33 36 37 40 44 49 48 45 45 43 42 40 36 33 30 27 25 23 21 18 15 13 12 10 9 7 6 5 5
10 6 5 9 11 9 5 4 6 7 18 16 20 37 44 41 35 29 30 34 38 40 42 44 47 51 50 50 48 47 46 42 41 38 34 30 28 25 23 21 19 17 15 13 11 8 7 6 6
9 7 16 13 12 10 9 12 17 8 24 22 32 49 52 52 49 47 45 43 44 45 45 48 49 52 54 55 54 53 50 48 46 43 38 35 34 30 29 27 25 21 18 16 13 11 8 7 6
13 13 11 15 33 24 14 10 14 8 16 48 36 37 33 41 50 53 51 50 48 45 49 52 54 54 57 59 59 58 57 55 53 49 44 43 42 39 36 32 28 25 21 17 13 10 8 7 8
7 28 21 10 18 12 10 10 9 29 67 68 69 57 60 61 59 57 55 50 50 52 49 54 58 59 61 62 64 64 64 62 60 55 51 51 50 46 42 38 35 30 24 20 16 12 10 9 10
9 12 26 45 33 42 41 49 21 52 86 81 70 63 59 52 49 46 47 47 50 58 58 58 59 63 65 68 68 70 70 69 66 62 59 56 56 53 48 45 41 36 31 26 21 16 13 11 11
5 18 27 26 39 33 18 52 8 54 64 64 57 61 60 55 47 43 47 43 47 47 51 58 64 67 69 71 73 74 74 72 72 71 67 64 62 60 55 51 48 42 37 32 27 21 17 13 12
9 15 17 15 26 18 14 19 22 64 46 57 66 50 56 50 41 44 43 48 50 54 51 55 64 72 76 77 76 78 77 77 78 77 74 71 68 67 63 59 55 49 43 38 33 26 21 17 15
3 0 10 5 13 6 20 20 37 55 43 46 46 61 65 70 68 63 65 74 75 72 68 63 63 72 80 83 82 83 83 82 83 83 80 79 75 73 71 67 61 56 51 45 39 33 28 23 19
3 10 15 20 28 10 15 18 26 31 27 53 74 93 94 98 97 98 93 86 79 75 74 73 74 74 78 86 90 89 89 88 89 87 86 86 81 79 77 72 66 64 59 53 45 39 33 26 22
16 10 11 11 8 9 9 27 26 73 68 74 76 92 98 80 99 84 79 70 57 55 55 57 65 76 78 86 96 97 97 97 97 94 93 90 87 85 82 78 75 71 67 60 54 46 38 32 27
2 10 14 14 17 8 35 36 28 48 57 72 85 77 70 76 76 66 60 54 46 44 50 54 60 65 80 87 96 103 106 104 107 103 99 96 92 91 89 86 83 78 74 65 58 51 47 42 36
17 25 24 21 27 8 20 39 39 42 59 64 76 79 55 70 68 64 62 51 38 31 35 47 54 63 72 83 89 99 103 108 110 107 106 103 101 97 96 93 88 83 77 72 67 61 56 51 42
11 12 19 22 12 11 14 16 10 15 28 43 70 54 63 59 52 48 51 48 41 37 36 37 42 49 62 74 86 95 102 102 106 114 113 111 104 101 99 95 92 88 83 81 74 70 63 58 51
17 20 21 10 7 8 8 18 6 16 20 14 39 38 39 33 34 47 62 64 51 37 30 32 38 44 53 67 81 91 97 101 101 106 112 111 107 105 103 100 96 93 89 86 79 74 70 65 59
19 4 6 5 8 5 5 8 11 4 15 11 16 19 18 21 44 54 61 76 79 64 39 33 34 42 50 61 71 80 86 91 96 94 101 107 109 108 105 103 100 97 93 87 84 81 79 73 66
5 4 8 7 2 8 20 17 5 10 11 4 15 40 42 26 30 58 75 72 66 58 52 44 34 35 39 49 57 68 77 83 88 93 93 92 103 109 108 107 105 100 96 94 89 85 81 76 70
7 9 7 9 3 13 5 7 10 13 10 3 12 22 14 24 59 76 70 68 64 58 63 58 53 43 35 41 44 52 62 72 82 88 86 88 91 99 107 108 107 105 100 95 91 89 85 82 78
13 16 11 13 7 13 7 17 10 17 19 14 6 2 30 59 61 59 57 56 58 53 46 46 45 44 43 42 42 49 58 61 71 83 86 84 85 84 90 100 104 102 100 99 95 92 88 86 84
6 11 6 3 0 7 12 25 28 19 7 7 27 52 58 60 66 63 60 57 49 46 52 49 45 40 33 34 40 41 48 57 62 66 74 82 82 82 81 84 96 100 101 100 99 99 97 93 89
10 2 2 1 7 13 17 17 29 16 19 31 33 46 56 58 66 66 60 56 53 49 45 46 44 45 42 36 35 36 41 46 55 62 67 72 77 82 82 80 83 93 99 101 103 104 102 99 96
3 6 9 5 12 24 25 15 13 17 24 18 15 33 45 55 56 57 60 60 58 57 56 51 49 47 47 45 45 43 38 41 45 55 61 68 73 80 83 83 87 89 94 101 106 110 108 107 104
17 34 33 26 22 19 30 29 20 24 21 27 22 26 36 37 46 52 52 55 60 63 60 62 59 54 54 52 47 46 47 44 44 48 52 59 68 74 84 87 91 95 96 99 104 113 115 114 113
Wind_Direction_500mb
229 255 302 330 44 56 273 264 288 263 253 183 141 162 206 235 175 231 286 172 174 192 195 195 198 199 200 201 200 201 202 206 209 205 214 219 228 233 243 233 227 219 231 248 271 296 303 305 299
229 240 301 57 87 31 271 267 247 238 332 176 193 203 241 260 242 272 258 185 174 186 198 200 199 200 200 200 199 200 203 204 209 204 202 218 235 236 233 232 231 237 246 265 276 268 274 278 285
234 218 256 89 108 197 234 219 254 303 238 196 227 238 249 237 252 226 240 201 186 185 195 199 202 201 201 200 202 199 201 203 197 198 207 223 232 237 229 231 234 244 256 267 270 270 273 272 269
181 143 56 88 232 254 228 248 244 301 261 218 227 266 255 255 264 223 246 209 205 194 195 201 201 202 198 191 193 197 202 204 201 211 222 230 236 238 238 232 231 237 245 253 257 259 263 269 272
165 86 56 12 258 261 252 269 265 246 271 212 201 265 257 270 262 251 254 227 216 207 204 203 203 203 203 198 195 196 205 216 220 229 228 228 232 230 224 225 230 234 239 248 256 260 263 263 273
110 84 55 265 253 258 270 259 241 217 236 231 219 252 262 280 287 262 248 239 216 217 214 209 208 210 211 209 208 212 216 225 233 236 227 226 223 223 221 223 227 228 231 232 232 232 233 239 251
128 97 210 244 268 297 243 278 201 223 246 248 226 216 266 282 284 261 239 226 225 224 220 217 213 215 218 217 216 217 220 226 231 232 223 221 221 218 214 213 216 215 212 206 211 217 236 264 270
154 104 156 233 232 272 275 252 239 210 261 255 211 235 257 291 291 270 244 232 226 227 227 223 221 220 222 222 222 223 225 228 230 231 228 220 214 209 209 211 211 205 199 197 198 205 215 233 247
159 73 211 244 169 246 253 265 227 251 265 244 240 257 276 278 277 266 251 243 236 233 230 227 225 224 225 225 226 226 229 227 225 227 229 223 216 213 214 213 210 205 203 204 212 223 233 244 257
152 148 220 215 198 222 251 235 272 259 266 257 258 274 275 274 275 272 264 259 251 244 240 233 230 228 226 226 227 227 230 227 226 228 229 223 219 215 217 213 209 206 206 211 217 221 238 254 263
184 204 212 240 237 252 254 249 240 235 270 268 257 293 281 278 279 271 267 262 263 260 248 243 237 232 230 229 229 230 231 229 228 228 226 221 220 220 221 219 216 214 215 220 226 236 245 262 285
213 240 229 250 240 251 247 254 212 231 265 287 291 289 283 282 282 277 274 272 265 258 254 247 244 239 237 232 232 232 233 232 231 231 228 225 223 222 220 219 217 219 221 224 229 238 257 278 294
225 244 245 254 258 265 276 266 246 259 281 290 290 287 284 283 280 274 274 268 259 255 252 247 243 243 241 237 236 234 234 234 234 233 232 229 227 227 224 223 222 221 220 222 225 233 245 260 279
260 271 275 278 269 258 218 273 226 265 283 290 290 292 289 284 282 269 264 269 264 262 257 250 246 243 242 241 239 239 237 237 235 234 233 231 230 229 228 227 226 224 223 223 224 228 237 255 279
292 307 310 227 261 224 206 283 231 271 279 284 287 289 302 285 270 275 275 271 277 277 268 257 249 244 242 240 240 239 239 237 237 236 235 233 232 230 229 228 227 227 225 224 226 230 238 248 266
249 322 304 261 160 231 169 257 273 286 279 271 280 291 295 287 281 280 282 285 282 280 275 271 257 247 243 241 241 239 238 237 237 236 236 235 233 231 229 228 227 227 226 224 224 225 227 232 244
303 234 222 309 203 143 186 259 265 295 287 283 287 289 288 285 282 280 283 286 286 281 276 271 264 255 246 240 240 239 239 238 237 236 235 235 235 233 230 229 228 228 226 225 225 226 226 233 244
223 223 246 247 290 192 211 250 276 284 290 283 282 281 281 277 287 296 297 299 296 290 280 270 258 252 249 242 239 238 238 237 237 235 235 234 233 232 231 230 229 229 228 225 225 225 227 229 233
196 226 244 260 259 306 271 270 269 275 274 275 274 277 278 286 302 305 311 314 309 299 286 275 262 251 239 236 236 236 237 237 236 234 234 233 231 231 231 231 230 229 229 229 227 224 225 224 226
243 262 267 274 259 200 269 284 276 260 263 262 270 278 290 296 310 317 326 329 327 311 297 281 266 254 244 238 239 236 238 238 238 236 234 232 230 228 228 230 230 231 230 227 225 225 224 223 223
226 221 248 255 316 253 317 278 240 280 257 269 265 272 289 293 310 328 337 337 336 333 314 293 278 263 252 245 240 237 237 238 239 236 234 232 230 231 230 229 230 232 231 231 230 229 227 228 227
259 232 253 258 355 251 16 293 186 254 278 264 291 297 300 323 338 356 3 359 334 314 306 305 294 270 256 248 245 241 240 240 242 240 237 234 231 231 231 231 231 230 231 231 230 230 229 228 228
235 191 220 194 196 1 302 277 250 222 262 277 286 1 10 19 44 22 15 13 8 359 319 294 287 275 263 257 255 251 246 246 247 246 242 235 232 231 231 233 232 231 231 231 231 229 227 228 229
115 59 36 58 47 280 210 194 287 191 207 309 318 350 355 9 40 21 3 4 4 4 9 350 331 310 286 272 265 263 258 254 250 247 245 243 235 231 232 232 232 233 232 231 230 230 231 231 232
117 71 313 327 7 239 349 269 245 248 250 289 339 330 12 48 10 6 9 11 13 21 32 29 25 13 338 306 289 278 271 264 260 256 252 247 240 234 233 233 232 232 232 232 231 230 230 230 231
176 171 170 234 251 284 348 254 257 230 263 19 57 259 23 9 13 20 16 18 16 15 10 11 9 3 351 332 315 298 284 276 270 268 263 257 251 245 240 237 235 235 235 233 230 231 232 232 232
182 187 195 310 55 285 254 282 289 254 157 43 49 30 25 20 19 20 20 22 16 8 5 359 351 347 343 332 323 315 305 292 281 274 269 266 261 253 248 243 238 238 237 235 232 231 230 231 232
202 171 92 324 181 234 268 276 247 317 34 34 29 21 14 18 16 15 15 13 14 14 11 9 8 6 359 340 324 313 309 300 292 283 277 268 264 258 253 249 245 241 239 237 235 233 232 231 230
145 250 241 274 207 245 256 247 255 71 78 73 42 26 15 5 3 358 356 360 0 358 1 5 1 357 355 354 346 330 315 302 293 289 287 280 270 263 258 253 248 244 240 237 237 237 235 233 231
225 246 233 238 240 236 235 252 3 97 87 76 64 40 31 15 3 2 356 350 352 351 347 352 354 353 353 353 348 344 333 314 302 296 290 282 277 271 263 257 252 248 243 240 237 237 237 234 232
Wind_Speed_850mb
9 7 6 6 6 7 6 9 4 6 4 4 16 9 9 5 9 6 3 16 22 42 46 48 46 44 39 34 32 28 26 25 28 21 21 24 26 22 19 16 17 17 16 14 6 5 7 7 6
7 4 3 3 6 3 8 7 8 9 1 7 12 9 5 11 27 14 10 18 25 34 40 43 44 43 42 37 33 32 27 27 24 23 22 20 21 17 17 18 20 20 22 17 8 9 9 10 10
5 2 1 7 5 7 7 9 6 6 6 8 4 9 7 7 9 10 12 20 26 34 38 40 40 41 41 41 36 33 35 29 29 27 24 20 18 15 15 18 21 23 21 17 17 15 15 16 15
4 2 8 6 8 12 10 4 6 12 4 12 6 10 12 18 9 13 12 21 27 32 39 40 39 39 37 37 37 36 35 37 34 31 24 22 23 20 19 22 23 22 21 19 17 17 16 17 16
6 3 5 3 8 10 11 18 9 4 5 5 8 6 11 20 22 23 14 19 28 29 35 41 42 40 39 39 40 41 42 43 33 24 23 23 22 22 20 21 20 19 18 17 16 15 12 10 9
6 5 5 5 8 10 14 17 7 7 9 6 7 9 13 18 18 19 22 18 27 29 33 38 43 43 42 40 41 41 41 42 33 27 25 24 23 22 20 19 18 16 14 11 9 6 5 4 3
10 7 6 5 9 11 8 3 5 5 6 12 9 4 10 17 14 13 18 23 26 30 34 38 44 46 44 41 42 42 40 41 36 31 27 26 24 21 18 16 15 12 9 8 7 5 4 4 4
8 9 5 8 6 12 5 4 5 9 8 7 10 10 10 13 18 19 21 27 33 36 37 40 44 49 48 45 45 43 42 40 36 33 30 27 25 23 21 18 15 13 12 10 9 7 6 5 5
10 6 5 9 11 9 5 4 6 7 18 16 20 37 44 41 35 29 30 34 38 40 42 44 47 51 50 50 48 47 46 42 41 38 34 30 28 25 23 21 19 17 15 13 11 8 7 6 6
9 7 16 13 12 10 9 12 17 8 24 22 32 49 52 52 49 47 45 43 44 45 45 48 49 52 54 55 54 53 50 48 46 43 38 35 34 30 29 27 25 21 18 16 13 11 8 7 6
13 13 11 15 33 24 14 10 14 8 16 48 36 37 33 41 50 53 51 50 48 45 49 52 54 54 57 59 59 58 57 55 53 49 44 43 42 39 36 32 28 25 21 17 13 10 8 7 8
7 28 21 10 18 12 10 10 9 29 67 68 69 57 60 61 59 57 55 50 50 52 49 54 58 59 61 62 64 64 64 62 60 55 51 51 50 46 42 38 35 30 24 20 16 12 10 9 10
9 12 26 45 33 42 41 49 21 52 86 81 70 63 59 52 49 46 47 47 50 58 58 58 59 63 65 68 68 70 70 69 66 62 59 56 56 53 48 45 41 36 31 26 21 16 13 11 11
5 18 27 26 39 33 18 52 8 54 64 64 57 61 60 55 47 43 47 43 47 47 51 58 64 67 69 71 73 74 74 72 72 71 67 64 62 60 55 51 48 42 37 32 27 21 17 13 12
9 15 17 15 26 18 14 19 22 64 46 57 66 50 56 50 41 44 43 48 50 54 51 55 64 72 76 77 76 78 77 77 78 77 74 71 68 67 63 59 55 49 43 38 33 26 21 17 15
3 0 10 5 13 6 20 20 37 55 43 46 46 61 65 70 68 63 65 74 75 72 68 63 63 72 80 83 82 83 83 82 83 83 80 79 75 73 71 67 61 56 51 45 39 33 28 23 19
3 10 15 20 28 10 15 18 26 31 27 53 74 93 94 98 97 98 93 86 79 75 74 73 74 74 78 86 90 89 89 88 89 87 86 86 81 79 77 72 66 64 59 53 45 39 33 26 22
16 10 11 11 8 9 9 27 26 73 68 74 76 92 98 80 99 84 79 70 57 55 55 57 65 76 78 86 96 97 97 97 97 94 93 90 87 85 82 78 75 71 67 60 54 46 38 32 27
2 10 14 14 17 8 35 36 28 48 57 72 85 77 70 76 76 66 60 54 46 44 50 54 60 65 80 87 96 103 106 104 107 103 99 96 92 91 89 86 83 78 74 65 58 51 47 42 36
17 25 24 21 27 8 20 39 39 42 59 64 76 79 55 70 68 64 62 51 38 31 35 47 54 63 72 83 89 99 103 108 110 107 106 103 101 97 96 93 88 83 77 72 67 61 56 51 42
11 12 19 22 12 11 14 16 10 15 28 43 70 54 63 59 52 48 51 48 41 37 36 37 42 49 62 74 86 95 102 102 106 114 113 111 104 101 99 95 92 88 83 81 74 70 63 58 51
17 20 21 10 7 8 8 18 6 16 20 14 39 38 39 33 34 47 62 64 51 37 30 32 38 44 53 67 81 91 97 101 101 106 112 111 107 105 103 100 96 93 89 86 79 74 70 65 59
19 4 6 5 8 5 5 8 11 4 15 11 16 19 18 21 44 54 61 76 79 64 39 33 34 42 50 61 71 80 86 91 96 94 101 107 109 108 105 103 100 97 93 87 84 81 79 73 66
5 4 8 7 2 8 20 17 5 10 11 4 15 40 42 26 30 58 75 72 66 58 52 44 34 35 39 49 57 68 77 83 88 93 93 92 103 109 108 107 105 100 96 94 89 85 81 76 70
7 9 7 9 3 13 5 7 10 13 10 3 12 22 14 24 59 76 70 68 64 58 63 58 53 43 35 41 44 52 62 72 82 88 86 88 91 99 107 108 107 105 100 95 91 89 85 82 78
13 16 11 13 7 13 7 17 10 17 19 14 6 2 30 59 61 59 57 56 58 53 46 46 45 44 43 42 42 49 58 61 71 83 86 84 85 84 90 100 104 102 100 99 95 92 88 86 84
6 11 6 3 0 7 12 25 28 19 7 7 27 52 58 60 66 63 60 57 49 46 52 49 45 40 33 34 40 41 48 57 62 66 74 82 82 82 81 84 96 100 101 100 99 99 97 93 89
10 2 2 1 7 13 17 17 29 16 19 31 33 46 56 58 66 66 60 56 53 49 45 46 44 45 42 36 35 36 41 46 55 62 67 72 77 82 82 80 83 93 99 101 103 104 102 99 96
3 6 9 5 12 24 25 15 13 17 24 18 15 33 45 55 56 57 60 60 58 57 56 51 49 47 47 45 45 43 38 41 45 55 61 68 73 80 83 83 87 89 94 101 106 110 108 107 104
17 34 33 26 22 19 30 29 20 24 21 27 22 26 36 37 46 52 52 55 60 63 60 62 59 54 54 52 47 46 47 44 44 48 52 59 68 74 84 87 91 95 96 99 104 113 115 114 113
Wind_Direction_850mb
229 255 302 330 44 56 273 264 288 263 253 183 141 162 206 235 175 231 286 172 174 192 195 195 198 199 200 201 200 201 202 206 209 205 214 219 228 233 243 233 227 219 231 248 271 296 303 305 299
229 240 301 57 87 31 271 267 247 238 332 176 193 203 241 260 242 272 258 185 174 186 198 200 199 200 200 200 199 200 203 204 209 204 202 218 235 236 233 232 231 237 246 265 276 268 274 278 285
234 218 256 89 108 197 234 219 254 303 238 196 227 238 249 237 252 226 240 201 186 185 195 199 202 201 201 200 202 199 201 203 197 198 207 223 232 237 229 231 234 244 256 267 270 270 273 272 269
181 143 56 88 232 254 228 248 244 301 261 218 227 266 255 255 264 223 246 209 205 194 195 201 201 202 198 191 193 197 202 204 201 211 222 230 236 238 238 232 231 237 245 253 257 259 263 269 272
165 86 56 12 258 261 252 269 265 246 271 212 201 265 257 270 262 251 254 227 216 207 204 203 203 203 203 198 195 196 205 216 220 229 228 228 232 230 224 225 230 234 239 248 256 260 263 263 273
110 84 55 265 253 258 270 259 241 217 236 231 219 252 262 280 287 262 248 239 216 217 214 209 208 210 211 209 208 212 216 225 233 236 227 226 223 223 221 223 227 228 231 232 232 232 233 239 251
128 97 210 244 268 297 243 278 201 223 246 248 226 216 266 282 284 261 239 226 225 224 220 217 213 215 218 217 216 217 220 226 231 232 223 221 221 218 214 213 216 215 212 206 211 217 236 264 270
154 104 156 233 232 272 275 252 239 210 261 255 211 235 257 291 291 270 244 232 226 227 227 223 221 220 222 222 222 223 225 228 230 231 228 220 214 209 209 211 211 205 199 197 198 205 215 233 247
159 73 211 244 169 246 253 265 227 251 265 244 240 257 276 278 277 266 251 243 236 233 230 227 225 224 225 225 226 226 229 227 225 227 229 223 216 213 214 213 210 205 203 204 212 223 233 244 257
152 148 220 215 198 222 251 235 272 259 266 257 258 274 275 274 275 272 264 259 251 244 240 233 230 228 226 226 227 227 230 227 226 228 229 223 219 215 217 213 209 206 206 211 217 221 238 254 263
184 204 212 240 237 252 254 249 240 235 270 268 257 293 281 278 279 271 267 262 263 260 248 243 237 232 230 229 229 230 231 229 228 228 226 221 220 220 221 219 216 214 215 220 226 236 245 262 285
213 240 229 250 240 251 247 254 212 231 265 287 291 289 283 282 282 277 274 272 265 258 254 247 244 239 237 232 232 232 233 232 231 231 228 225 223 222 220 219 217 219 221 224 229 238 257 278 294
225 244 245 254 258 265 276 266 246 259 281 290 290 287 284 283 280 274 274 268 259 255 252 247 243 243 241 237 236 234 234 234 234 233 232 229 227 227 224 223 222 221 220 222 225 233 245 260 279
260 271 275 278 269 258 218 273 226 265 283 290 290 292 289 284 282 269 264 269 264 262 257 250 246 243 242 241 239 239 237 237 235 234 233 231 230 229 228 227 226 224 223 223 224 228 237 255 279
292 307 310 227 261 224 206 283 231 271 279 284 287 289 302 285 270 275 275 271 277 277 268 257 249 244 242 240 240 239 239 237 237 236 235 233 232 230 229 228 227 227 225 224 226 230 238 248 266
249 322 304 261 160 231 169 257 273 286 279 271 280 291 295 287 281 280 282 285 282 280 275 271 257 247 243 241 241 239 238 237 237 236 236 235 233 231 229 228 227 227 226 224 224 225 227 232 244
303 234 222 309 203 143 186 259 265 295 287 283 287 289 288 285 282 280 283 286 286 281 276 271 264 255 246 240 240 239 239 238 237 236 235 235 235 233 230 229 228 228 226 225 225 226 226 233 244
223 223 246 247 290 192 211 250 276 284 290 283 282 281 281 277 287 296 297 299 296 290 280 270 258 252 249 242 239 238 238 237 237 235 235 234 233 232 231 230 229 229 228 225 225 225 227 229 233
196 226 244 260 259 306 271 270 269 275 274 275 274 277 278 286 302 305 311 314 309 299 286 275 262 251 239 236 236 236 237 237 236 234 234 233 231 231 231 231 230 229 229 229 227 224 225 224 226
243 262 267 274 259 200 269 284 276 260 263 262 270 278 290 296 310 317 326 329 327 311 297 281 266 254 244 238 239 236 238 238 238 236 234 232 230 228 228 230 230 231 230 227 225 225 224 223 223
226 221 248 255 316 253 317 278 240 280 257 269 265 272 289 293 310 328 337 337 336 333 314 293 278 263 252 245 240 237 237 238 239 236 234 232 230 231 230 229 230 232 231 231 230 229 227 228 227
259 232 253 258 355 251 16 293 186 254 278 264 291 297 300 323 338 356 3 359 334 314 306 305 294 270 256 248 245 241 240 240 242 240 237 234 231 231 231 231 231 230 231 231 230 230 229 228 228
235 191 220 194 196 1 302 277 250 222 262 277 286 1 10 19 44 22 15 13 8 359 319 294 287 275 263 257 255 251 246 246 247 246 242 235 232 231 231 233 232 231 231 231 231 229 227 228 229
115 59 36 58 47 280 210 194 287 191 207 309 318 350 355 9 40 21 3 4 4 4 9 350 331 310 286 272 265 263 258 254 250 247 245 243 235 231 232 232 232 233 232 231 230 230 231 231 232
117 71 313 327 7 239 349 269 245 248 250 289 339 330 12 48 10 6 9 11 13 21 32 29 25 13 338 306 289 278 271 264 260 256 252 247 240 234 233 233 232 232 232 232 231 230 230 230 231
176 171 170 234 251 284 348 254 257 230 263 19 57 259 23 9 13 20 16 18 16 15 10 11 9 3 351 332 315 298 284 276 270 268 263 257 251 245 240 237 235 235 235 233 230 231 232 232 232
182 187 195 310 55 285 254 282 289 254 157 43 49 30 25 20 19 20 20 22 16 8 5 359 351 347 343 332 323 315 305 292 281 274 269 266 261 253 248 243 238 238 237 235 232 231 230 231 232
202 171 92 324 181 234 268 276 247 317 34 34 29 21 14 18 16 15 15 13 14 14 11 9 8 6 359 340 324 313 309 300 292 283 277 268 264 258 253 249 245 241 239 237 235 233 232 231 230
145 250 241 274 207 245 256 247 255 71 78 73 42 26 15 5 3 358 356 360 0 358 1 5 1 357 355 354 346 330 315 302 293 289 287 280 270 263 258 253 248 244 240 237 237 237 235 233 231
225 246 233 238 240 236 235 252 3 97 87 76 64 40 31 15 3 2 356 350 352 351 347 352 354 353 353 353 348 344 333 314 302 296 290 282 277 271 263 257 252 248 243 240 237 237 237 234 232